Tracking 32139 objects as of 17-Nov-2025
HD Live streaming from Space Station
objects crossing your sky now

STARLINK-35064

Track STARLINK-35064 now!
10-day predictions
STARLINK-35064 is classified as:


NORAD ID: 65531
Int'l Code: 2025-200M
Perigee: 552.1 km
Apogee: 556.2 km
Inclination: 97.6 °
Period: 95.6 minutes
Semi major axis: 6925 km
RCS: Unknown
Launch date: September 6, 2025
Source: United States (US)
Launch site: AIR FORCE EASTERN TEST RANGE (AFETR)
Your satellite tracking list
Your tracking list is empty




NASA's NSSDC Master Catalog

Two Line Element Set (TLE):
1 65531U 25200M   25320.66974007 -.00013135  00000-0 -88835-3 0  9990
2 65531  97.6064  28.3755 0002960  88.3965 271.7602 15.06449224 12128
Source of the keplerian elements: AFSPC